Вернуться в каталог

Replicator

АктивенНаукаVLEO
NORAD 60235·PAYLOAD·🇺🇸 United States

Запущен Jul 9, 2024 с Guiana Space Centre

Loading…

Ближайшие Пролёты (ближайшие 24 часа)

TLE

СвежийSource: Space-Track

Эпоха: Sep 14, 2026, 13:22 UTC

1 60235U 24128A   26257.55694854  .00001146  00000-0  10312-3 0  9993
2 60235  61.9934 280.3095 0037305 159.3860 200.8745 15.01456817119428

Отслеживайте Replicator в реальном времени с AllMySat

Download on the App Store